FALCON HEAVY R/B, 60134

Orbit data source: Space-Track

FALCON HEAVY R/B, 60134 is space debris in HEO originally from a launch on Tue, 25 Jun 2024 UTC launched from the Air Force Eastern Test Range (AFETR). Debris objects in space refer to the collection of defunct objects orbiting the Earth. Examples of debris include non-operational satellites, rocket bodies, and fragments generated from explosions, collisions, or faulty payload assembly.

Loading next visibility...
Identifier
60134, 2024-119B
Orbit
HEO
Last TLE update
2 days ago
Origin
Manufacturer
SpaceX
Mission
Spacecraft
Bus & Motor
F9ST2, Unknown motor
Mass
~4,000 kg wet, ~4,000 kg dry
Launch date (UTC)
2024-06-25 (1 year ago)
Launch vehicle
Unknown
Launch site
Air Force Eastern Test Range (AFETR)
Object type
Payload
Rocket body
Debris
Shape & HBR
Cyl, Unknown HBR
Radar Cross Section
49.816 m², Large (>1 m²)

Expand to show TLE details & history

TLE from 2 days ago
0 FALCON HEAVY R/B
1 60134U 24119B   25185.81333542 -.00000116  00000-0  00000-0 0  9990
2 60134   5.1998  79.7919 2988499 211.3721 126.5374  1.51715660  5685
Epoch: 2025-07-04T19:31Z
TLE epoch observation values (Epoch: 2025-07-04T19:31:12.18Z)
Latitude
-0°
Longitude
-136.17839°
Altitude
32,745.885 km
Speed
2.814 km/s
True Right ascension
05h 18m 43s
True Declination
0° 00' 00"
Sunlit
Object was in daylight at epoch
Visualization orbit readout
Latitude
5.11248°
Longitude
-57.80276°
Altitude
30,228.923 km
Speed
3.053 km/s
Apparent Right ascension
10h 20m 18s
Apparent Declination
-1° 08' 14"
Sunlit
Object is in daylight
Visualization observer readout
Local Sidereal Time
20:49:12
Azimuth
326.113° NNW
Elevation
-46.036°
Doppler factor
1
Orbital elements
Apogee altitude
35,177.381 km
Perigee altitude
16,054.521 km
Semi-major axis
31,994.088 km
Eccentricity
0.29885
Inclination
5.1998°
RAAN
79.7919°
Arg. of periapsis
211.3721°
True anomaly
Unknown
Mean anomaly
126.5374°
Eccentric anomaly
Unknown
Mean motion
0.37926 °/min
Orbital period
949.21 mins
BSTAR
0
Loading maneuver chart data...
Loading SW <> Apogee altitude chart data...
Loading historical data...
Loading historical data...
Loading historical data...
Loading historical data...
Loading historical data...
Loading historical data...
Loading historical data...
Other satellites on launch #119 in the year 2024 (2024-06-25 UTC)

FALCON HEAVY R/B Visibility forecast

Observer location: undefined°, undefined°

Span
Click to sort rows by Start time (UTC) header in descending order
Start Az.
Max El. time (UTC)
Max El. Az.
Max El.
End time (UTC)
End Az.
897 mins2025-07-06 14:54:17.986Z239.154° WSW2025-07-07 03:29:17.986Z196.756° SSW33.623°2025-07-07 05:51:17.986Z121.625° SE
|